FW2297 Weather Reports


Display with metric or nautical units.
time (UTC)temp
F
wind
direction
speed
MPH
gust
MPH
rain 1hr
in
rain 24hr
in
rain mn
in
humidity
%
barometer
mb
20260905085058 58 0 0.0 0.0 0.00 0.00 0.00 94 1008.9
20260905084600 58 0 0.0 0.0 0.00 0.00 0.00 94 1008.9
20260905084053 58 0 0.0 0.0 0.00 0.00 0.00 94 1009.0
20260905083552 58 0 0.0 0.0 0.00 0.00 0.00 94 1008.9
20260905083058 58 0 0.0 0.0 0.00 0.00 0.00 93 1008.8
20260905082551 58 0 0.0 0.0 0.00 0.00 0.00 93 1008.8
20260905082051 58 0 0.0 0.0 0.00 0.00 0.00 93 1008.8
20260905081606 58 0 0.0 0.0 0.00 0.00 0.00 93 1008.8
20260905081050 58 0 0.0 0.0 0.00 0.00 0.00 93 1008.8
20260905080550 58 0 0.0 0.0 0.00 0.00 0.00 93 1008.8
20260905080104 59 0 0.0 0.0 0.00 0.00 0.00 93 1008.9
20260905075551 59 0 0.0 0.0 0.00 0.00 0.00 94 1008.8
20260905075050 59 0 0.0 0.0 0.00 0.00 0.00 94 1008.7
20260905074600 59 0 0.0 0.0 0.00 0.00 0.00 94 1008.9
20260905074051 59 0 0.0 0.0 0.00 0.00 0.00 94 1008.8
20260905073550 59 0 0.0 0.0 0.00 0.00 0.00 94 1009.0
20260905073103 59 0 0.0 0.0 0.00 0.00 0.00 94 1008.8
20260905072555 59 0 0.0 0.0 0.00 0.00 0.00 94 1008.8
20260905072118 59 0 0.0 0.0 0.00 0.00 0.00 94 1008.9
20260905071603 58 0 0.0 0.0 0.00 0.00 0.00 94 1009.1
20260905071050 58 0 0.0 0.0 0.00 0.00 0.00 93 1009.1
20260905070550 58 0 0.0 0.0 0.00 0.00 0.00 93 1009.3
20260905070100 58 0 0.0 0.0 0.00 0.00 0.00 93 1009.3
20260905065551 58 0 0.0 0.0 0.00 0.00 0.00 93 1009.3
20260905065050 58 0 0.0 0.0 0.00 0.00 0.00 92 1009.3
20260905064602 58 0 0.0 0.0 0.00 0.00 0.00 92 1009.3
20260905064050 59 0 0.0 0.0 0.00 0.00 0.00 92 1009.4
20260905063551 59 0 0.0 0.0 0.00 0.00 0.00 92 1009.2
20260905063102 59 0 0.0 0.0 0.00 0.00 0.00 92 1009.3
20260905062554 59 0 0.0 0.0 0.00 0.00 0.00 92 1009.2
20260905062051 59 0 0.0 0.0 0.00 0.00 0.00 92 1009.2
20260905061612 59 0 0.0 0.0 0.00 0.00 0.00 92 1009.3
20260905061051 59 0 0.0 0.0 0.00 0.00 0.00 92 1009.3
20260905060550 59 0 0.0 0.0 0.00 0.00 0.00 92 1009.2
20260905060101 59 0 0.0 0.0 0.00 0.00 0.00 93 1009.1
20260905055550 59 0 0.0 0.0 0.00 0.00 0.00 92 1009.2
20260905055051 59 0 0.0 0.0 0.00 0.00 0.00 92 1009.1
20260905054600 59 0 0.0 0.0 0.00 0.00 0.00 92 1009.3
20260905054051 59 0 0.0 0.0 0.00 0.00 0.00 92 1009.3
20260905053551 59 0 0.0 0.0 0.00 0.00 0.00 92 1009.4
20260905053104 59 0 0.0 0.0 0.00 0.00 0.00 92 1009.4
20260905052550 59 0 0.0 0.0 0.00 0.00 0.00 92 1009.5
20260905052050 59 0 0.0 0.0 0.00 0.00 0.00 91 1009.6
20260905051559 59 0 0.0 0.0 0.00 0.00 0.00 91 1009.6
20260905051050 59 0 0.0 0.0 0.00 0.00 0.00 91 1009.6
20260905050551 59 0 0.0 0.0 0.00 0.00 0.00 90 1009.6
20260905050059 59 0 0.0 0.0 0.00 0.00 0.00 90 1009.7
20260905045549 60 0 0.0 0.0 0.00 0.00 0.00 89 1009.6
20260905045051 60 0 0.0 0.0 0.00 0.00 0.00 89 1009.7
20260905044607 60 0 0.0 0.0 0.00 0.00 0.00 88 1009.6
20260905044051 60 0 0.0 0.0 0.00 0.00 0.00 88 1009.6
20260905043548 61 0 0.0 0.0 0.00 0.00 0.00 88 1009.7
20260905043101 61 0 0.0 0.0 0.00 0.00 0.00 87 1009.6
20260905042548 61 0 0.0 0.0 0.00 0.00 0.00 86 1009.6
20260905042051 62 0 0.0 0.0 0.00 0.00 0.00 86 1009.6
20260905041559 62 0 0.0 0.0 0.00 0.00 0.00 85 1009.6
20260905041050 62 0 0.0 0.0 0.00 0.00 0.00 84 1009.6
20260905040551 63 0 0.0 0.0 0.00 0.00 0.00 83 1009.6
20260905040056 64 0 0.0 0.0 0.00 0.00 0.00 82 1009.7
20260905035550 64 0 0.0 2.0 0.00 0.00 0.00 81 1009.6
20260905035048 64 0 0.0 2.0 0.00 0.00 0.00 81 1009.6
20260905034607 65 0 0.0 0.0 0.00 0.00 0.00 80 1009.4
20260905034050 65 0 0.0 3.0 0.00 0.00 0.00 80 1009.4
20260905033551 65 0 0.0 3.0 0.00 0.00 0.00 80 1009.4
20260905033105 65 259 0.0 0.0 0.00 0.00 0.00 80 1009.6
20260905032552 65 0 0.0 0.0 0.00 0.00 0.00 80 1009.6
20260905032049 64 0 0.0 1.0 0.00 0.00 0.00 80 1009.6
20260905031604 64 0 0.0 1.0 0.00 0.00 0.00 81 1009.6
20260905031049 64 0 0.0 0.0 0.00 0.00 0.00 81 1009.7
20260905030549 64 0 0.0 0.0 0.00 0.00 0.00 82 1009.7
20260905030123 64 0 0.0 0.0 0.00 0.00 0.00 82 1009.7
20260905025548 64 0 0.0 0.0 0.00 0.00 0.00 81 1009.8
20260905025051 65 0 0.0 0.0 0.00 0.00 0.00 81 1010.0
20260905024559 65 0 0.0 0.0 0.00 0.00 0.00 81 1010.0
20260905024049 64 0 0.0 0.0 0.00 0.00 0.00 81 1009.8
20260905023552 64 0 0.0 0.0 0.00 0.00 0.00 81 1010.1
20260905023105 64 0 0.0 0.0 0.00 0.00 0.00 81 1009.8
20260905022548 65 0 0.0 0.0 0.00 0.00 0.00 81 1009.9
20260905022048 65 0 0.0 0.0 0.00 0.00 0.00 80 1009.7
20260905021602 65 0 0.0 0.0 0.00 0.00 0.00 79 1009.8
20260905021051 66 0 0.0 0.0 0.00 0.00 0.00 78 1009.9
20260905020551 66 0 0.0 0.0 0.00 0.00 0.00 78 1009.9
20260905020108 66 0 0.0 0.0 0.00 0.00 0.00 78 1009.8
20260905015548 66 0 0.0 0.0 0.00 0.00 0.00 78 1009.7
20260905015054 66 0 0.0 4.0 0.00 0.00 0.00 77 1009.8
20260905014600 66 0 0.0 4.0 0.00 0.00 0.00 77 1009.9
20260905014051 66 0 0.0 4.0 0.00 0.00 0.00 76 1009.9
20260905013549 66 0 0.0 5.0 0.00 0.00 0.00 76 1009.7
20260905013108 66 0 0.0 6.0 0.00 0.00 0.00 76 1009.4
20260905012550 66 0 1.0 6.0 0.00 0.00 0.00 76 1009.4
20260905012050 66 0 0.0 4.0 0.00 0.00 0.00 76 1009.6
20260905011603 66 0 0.0 1.0 0.00 0.00 0.00 76 1009.7
20260905011051 67 0 0.0 6.0 0.00 0.00 0.00 75 1009.9
20260905010551 67 0 0.0 6.0 0.00 0.00 0.00 75 1009.8
20260905010114 67 0 0.0 5.0 0.00 0.00 0.00 75 1009.8
20260905005550 67 0 0.0 5.0 0.00 0.00 0.00 75 1010.0
20260905005050 67 0 0.0 1.0 0.00 0.00 0.00 74 1010.0
20260905004614 67 0 0.0 1.0 0.00 0.00 0.00 74 1009.9
20260905004050 67 0 0.0 1.0 0.00 0.00 0.00 73 1009.9
20260905003550 67 0 0.0 2.0 0.00 0.00 0.00 74 1009.8
20260905003058 67 0 0.0 2.0 0.00 0.00 0.00 74 1009.9
20260905002550 68 0 0.0 0.0 0.00 0.00 0.00 74 1010.0
20260905002050 68 0 0.0 1.0 0.00 0.00 0.00 74 1010.0
20260905001555 68 0 0.0 1.0 0.00 0.00 0.00 74 1009.9
20260905001052 68 0 0.0 2.0 0.00 0.00 0.00 73 1009.9
20260905000551 68 0 0.0 2.0 0.00 0.00 0.00 73 1010.0
20260905000104 68 0 0.0 2.0 0.00 0.00 0.00 72 1010.0
20260904235551 69 0 0.0 6.0 0.00 0.00 0.00 72 1009.9
20260904235050 69 0 0.0 6.0 0.00 0.00 0.00 72 1009.9
20260904234603 69 0 0.0 6.0 0.00 0.00 0.00 71 1009.8
20260904234155 69 0 0.0 3.0 0.00 0.00 0.00 71 1009.7
20260904234104 69 0 0.0 3.0 0.00 0.00 0.00 71 1009.7
20260904233552 69 0 0.0 2.0 0.00 0.00 0.00 71 1009.7
20260904233106 69 0 0.0 4.0 0.00 0.00 0.00 70 1009.7
20260904232552 69 0 0.0 4.0 0.00 0.00 0.00 70 1009.7
20260904232052 70 0 0.0 4.0 0.00 0.00 0.00 69 1009.6
20260904231601 70 359 0.0 3.0 0.00 0.00 0.00 69 1009.6
20260904231051 70 0 0.0 3.0 0.00 0.00 0.00 69 1009.7
20260904230551 70 337 0.0 2.0 0.00 0.00 0.00 68 1009.7
20260904230105 71 0 0.0 4.0 0.00 0.00 0.00 68 1009.6
20260904225559 71 0 0.0 4.0 0.00 0.00 0.00 68 1009.6
20260904225054 71 0 0.0 1.0 0.00 0.00 0.00 67 1009.4
20260904224600 72 0 0.0 1.0 0.00 0.00 0.00 67 1009.6
20260904224055 72 0 0.0 0.0 0.00 0.00 0.00 66 1009.6
20260904223554 72 0 0.0 3.0 0.00 0.00 0.00 65 1009.6
20260904223059 72 0 0.0 6.0 0.00 0.00 0.00 64 1009.7
20260904222551 73 0 0.0 6.0 0.00 0.00 0.00 63 1009.7
20260904222051 73 0 0.0 5.0 0.00 0.00 0.00 62 1009.7
20260904221613 74 0 1.0 5.0 0.00 0.00 0.00 61 1009.6
20260904221052 74 359 0.0 12.0 0.00 0.00 0.00 60 1009.6
20260904220552 74 0 1.0 12.0 0.00 0.00 0.00 58 1009.6
20260904220104 75 267 2.0 12.0 0.00 0.00 0.00 57 1009.5
20260904215551 76 0 0.0 7.0 0.00 0.00 0.00 59 1009.5
20260904215053 76 0 1.0 7.0 0.00 0.00 0.00 58 1009.6
20260904214619 76 303 0.0 8.0 0.00 0.00 0.00 60 1009.7
20260904214052 76 269 1.0 8.0 0.00 0.00 0.00 57 1009.5
20260904213552 76 255 2.0 8.0 0.00 0.00 0.00 59 1009.5
20260904213107 76 0 0.0 14.0 0.00 0.00 0.00 59 1009.7
20260904212553 76 0 3.0 14.0 0.00 0.00 0.00 57 1009.6
20260904212051 76 0 1.0 11.0 0.00 0.00 0.00 58 1009.5
20260904211621 76 261 2.0 11.0 0.00 0.00 0.00 57 1009.3
20260904211052 76 0 1.0 11.0 0.00 0.00 0.00 57 1009.4
20260904210551 76 353 3.0 11.0 0.00 0.00 0.00 54 1009.3
20260904210100 76 0 0.0 8.0 0.00 0.00 0.00 57 1009.4
20260904205555 76 0 1.0 8.0 0.00 0.00 0.00 57 1009.3
20260904205051 76 0 0.0 5.0 0.00 0.00 0.00 57 1009.1
20260904204603 76 0 0.0 5.0 0.00 0.00 0.00 59 1009.4
20260904204051 75 236 0.0 4.0 0.00 0.00 0.00 61 1009.5
20260904203552 75 0 0.0 13.0 0.00 0.00 0.00 60 1009.3
20260904203114 75 0 1.0 13.0 0.00 0.00 0.00 60 1009.4
20260904202552 75 0 0.0 6.0 0.00 0.00 0.00 59 1009.5
20260904202053 74 0 0.0 6.0 0.00 0.00 0.00 60 1009.6
20260904201603 74 0 0.0 5.0 0.00 0.00 0.00 61 1009.5
20260904201052 74 0 0.0 7.0 0.00 0.00 0.00 61 1009.4
20260904200555 75 0 0.0 7.0 0.00 0.00 0.00 61 1009.3
20260904200116 75 0 0.0 6.0 0.00 0.00 0.00 60 1009.4
20260904195551 76 0 0.0 7.0 0.00 0.00 0.00 58 1009.4
20260904195051 77 322 0.0 7.0 0.00 0.00 0.00 58 1009.4
20260904194559 78 0 0.0 9.0 0.00 0.00 0.00 58 1009.3
20260904194052 78 0 1.0 9.0 0.00 0.00 0.00 59 1009.3
20260904193552 77 0 0.0 6.0 0.00 0.00 0.00 56 1009.4
20260904193103 78 0 1.0 6.0 0.00 0.00 0.00 58 1009.5
20260904192551 78 0 0.0 8.0 0.00 0.00 0.00 58 1009.6
20260904192051 78 0 1.0 11.0 0.00 0.00 0.00 56 1009.5
20260904191601 78 299 3.0 11.0 0.00 0.00 0.00 54 1009.5
20260904191052 77 289 3.0 12.0 0.00 0.00 0.00 55 1009.4
20260904190551 77 0 2.0 12.0 0.00 0.00 0.00 55 1009.4
20260904190104 77 296 0.0 11.0 0.00 0.00 0.00 54 1009.4
20260904185551 77 254 1.0 12.0 0.00 0.00 0.00 56 1009.3
20260904185052 77 0 1.0 12.0 0.00 0.00 0.00 58 1009.3
20260904184603 77 0 0.0 6.0 0.00 0.00 0.00 58 1009.5
20260904184052 77 0 0.0 6.0 0.00 0.00 0.00 56 1009.4
20260904183552 77 0 0.0 7.0 0.00 0.00 0.00 59 1009.6
20260904183101 75 0 1.0 7.0 0.00 0.00 0.00 60 1009.8
20260904182552 75 0 1.0 8.0 0.00 0.00 0.00 60 1009.9
20260904182051 75 309 1.0 9.0 0.00 0.00 0.00 61 1009.8
20260904181559 75 335 0.0 9.0 0.00 0.00 0.00 59 1009.8
20260904181052 75 53 0.0 10.0 0.00 0.00 0.00 58 1009.7
20260904180554 75 0 1.0 13.0 0.00 0.00 0.00 58 1009.7
20260904180116 76 0 2.0 13.0 0.00 0.00 0.00 57 1009.4
20260904175552 76 320 2.0 13.0 0.00 0.00 0.00 60 1009.5
20260904175049 77 0 1.0 11.0 0.00 0.00 0.00 58 1009.6
20260904174610 77 0 0.0 13.0 0.00 0.00 0.00 55 1009.5
20260904174053 78 0 3.0 13.0 0.00 0.00 0.00 55 1009.4
20260904173551 78 238 1.0 11.0 0.00 0.00 0.00 55 1009.5
20260904173108 78 0 0.0 11.0 0.00 0.00 0.00 54 1009.5
20260904172551 77 0 0.0 13.0 0.00 0.00 0.00 58 1009.7
20260904172052 77 0 1.0 13.0 0.00 0.00 0.00 58 1009.7
20260904171608 77 0 3.0 13.0 0.00 0.00 0.00 57 1009.7
20260904171052 78 0 3.0 13.0 0.00 0.00 0.00 55 1009.6
20260904170550 77 0 2.0 10.0 0.00 0.00 0.00 56 1009.5
20260904165551 77 0 3.0 12.0 0.00 0.00 0.00 56 1009.8
20260904165052 78 254 2.0 11.0 0.00 0.00 0.00 54 1009.7
20260904164601 78 0 2.0 10.0 0.00 0.00 0.00 58 1009.8
20260904164052 77 0 2.0 11.0 0.00 0.00 0.00 58 1009.6
20260904163551 76 0 2.0 11.0 0.00 0.00 0.00 60 1009.7
20260904163100 76 0 0.0 6.0 0.00 0.00 0.00 62 1009.9
20260904162551 76 0 0.0 1.0 0.00 0.00 0.00 60 1009.8
20260904162052 76 0 0.0 3.0 0.00 0.00 0.00 66 1009.9
20260904161622 75 0 0.0 4.0 0.00 0.00 0.00 64 1009.9
20260904161050 75 0 0.0 4.0 0.00 0.00 0.00 66 1009.9
20260904160552 74 0 0.0 4.0 0.00 0.00 0.00 66 1009.9
20260904160107 74 0 0.0 7.0 0.00 0.00 0.00 67 1009.9
20260904155553 74 0 0.0 7.0 0.00 0.00 0.00 67 1010.1
20260904155052 74 299 0.0 7.0 0.00 0.00 0.00 65 1009.9
20260904154600 75 0 1.0 7.0 0.00 0.00 0.00 65 1010.1
20260904154051 75 271 0.0 7.0 0.00 0.00 0.00 65 1010.0
20260904153551 74 0 0.0 7.0 0.00 0.00 0.00 70 1010.1
20260904153129 74 0 0.0 3.0 0.00 0.00 0.00 70 1010.2
20260904152550 74 0 0.0 0.0 0.00 0.00 0.00 72 1010.2
20260904152052 74 0 0.0 0.0 0.00 0.00 0.00 72 1010.3
20260904151606 72 0 0.0 0.0 0.00 0.00 0.00 76 1010.3
20260904151054 72 0 0.0 0.0 0.00 0.00 0.00 75 1010.1
20260904150552 72 0 0.0 0.0 0.00 0.00 0.00 76 1010.1
20260904145551 72 0 0.0 0.0 0.00 0.00 0.00 76 1009.9
20260904145055 73 0 0.0 5.0 0.00 0.00 0.00 76 1010.0
20260904144601 73 0 0.0 5.0 0.00 0.00 0.00 74 1010.1
20260904144051 73 250 0.0 1.0 0.00 0.00 0.00 74 1010.1
20260904143552 73 0 0.0 6.0 0.00 0.00 0.00 76 1010.1
20260904143105 73 0 0.0 6.0 0.00 0.00 0.00 77 1010.2
20260904142553 72 0 0.0 1.0 0.00 0.00 0.00 79 1010.3
20260904142052 73 0 0.0 0.0 0.00 0.00 0.00 77 1010.3
20260904141604 72 0 0.0 0.0 0.00 0.00 0.00 78 1010.2
20260904141050 71 0 0.0 1.0 0.00 0.00 0.00 80 1010.4
20260904140551 71 0 0.0 1.0 0.00 0.00 0.00 79 1010.2
20260904140104 71 0 0.0 1.0 0.00 0.00 0.00 81 1010.3
20260904135550 71 0 0.0 0.0 0.00 0.00 0.00 80 1010.3
20260904135050 71 0 0.0 0.0 0.00 0.00 0.00 82 1010.4
20260904134607 70 0 0.0 0.0 0.00 0.00 0.00 81 1010.3
20260904134051 70 0 0.0 0.0 0.00 0.00 0.00 82 1010.2
20260904133551 70 0 0.0 0.0 0.00 0.00 0.00 82 1010.2
20260904133104 70 0 0.0 0.0 0.00 0.00 0.00 85 1010.3
20260904132552 69 0 0.0 0.0 0.00 0.00 0.00 84 1010.3
20260904132050 68 0 0.0 0.0 0.00 0.00 0.00 85 1010.3
20260904131635 68 0 0.0 0.0 0.00 0.00 0.00 87 1010.3
20260904131052 67 0 0.0 0.0 0.00 0.00 0.00 87 1010.3
20260904130551 67 0 0.0 0.0 0.00 0.00 0.00 88 1010.6
20260904125551 66 0 0.0 0.0 0.00 0.02 0.00 90 1010.3
20260904125052 65 0 0.0 0.0 0.00 0.02 0.00 92 1010.4
20260904124556 65 0 0.0 0.0 0.00 0.02 0.00 92 1010.5
20260904124053 64 0 0.0 0.0 0.00 0.02 0.00 94 1010.6
20260904123551 64 0 0.0 0.0 0.00 0.02 0.00 95 1010.6
20260904123101 63 0 0.0 0.0 0.00 0.02 0.00 95 1010.7
20260904122551 63 0 0.0 0.0 0.00 0.02 0.00 96 1010.6
20260904122052 63 0 0.0 0.0 0.00 0.02 0.00 96 1010.7
20260904121600 62 0 0.0 0.0 0.00 0.02 0.00 97 1010.7
20260904121051 62 0 0.0 0.0 0.00 0.02 0.00 97 1010.8
20260904120552 62 0 0.0 0.0 0.00 0.02 0.00 96 1010.7
20260904120103 62 0 0.0 0.0 0.00 0.02 0.00 97 1010.9
20260904115552 62 0 0.0 0.0 0.00 0.02 0.00 97 1010.7
20260904115052 61 0 0.0 0.0 0.00 0.02 0.00 97 1010.6
20260904114558 61 0 0.0 0.0 0.00 0.02 0.00 97 1010.7
20260904114051 61 0 0.0 0.0 0.00 0.02 0.00 96 1010.8
20260904113551 61 0 0.0 0.0 0.00 0.02 0.00 96 1010.7
20260904113057 61 0 0.0 0.0 0.00 0.02 0.00 96 1010.8
20260904112550 61 0 0.0 0.0 0.00 0.02 0.00 96 1010.6
20260904112051 61 0 0.0 0.0 0.00 0.02 0.00 96 1010.4
20260904111606 61 0 0.0 0.0 0.00 0.02 0.00 96 1010.2
20260904111054 61 0 0.0 0.0 0.00 0.02 0.00 96 1010.1
20260904110552 61 0 0.0 0.0 0.00 0.02 0.00 96 1010.2
20260904110101 61 0 0.0 0.0 0.00 0.02 0.00 96 1010.2
20260904105550 61 0 0.0 0.0 0.00 0.04 0.00 96 1010.3
20260904105051 61 0 0.0 0.0 0.00 0.04 0.00 96 1010.2
20260904104605 61 0 0.0 0.0 0.00 0.04 0.00 96 1010.2
20260904104052 62 0 0.0 0.0 0.00 0.04 0.00 96 1010.3
20260904103551 62 0 0.0 0.0 0.00 0.04 0.00 96 1010.1
20260904103109 62 0 0.0 0.0 0.00 0.04 0.00 96 1010.1
20260904102549 62 0 0.0 0.0 0.00 0.04 0.00 96 1010.2
20260904102052 62 0 0.0 0.0 0.00 0.04 0.00 96 1010.2
20260904101601 62 0 0.0 0.0 0.00 0.04 0.00 96 1010.3
20260904101051 62 0 0.0 0.0 0.00 0.04 0.00 96 1010.2
20260904100551 62 0 0.0 0.0 0.00 0.04 0.00 96 1010.2
20260904100106 62 0 0.0 0.0 0.00 0.04 0.00 96 1010.0
20260904095551 62 0 0.0 0.0 0.00 0.06 0.00 96 1010.0
20260904095050 62 0 0.0 0.0 0.00 0.06 0.00 96 1010.0
20260904094603 62 0 0.0 0.0 0.00 0.06 0.00 96 1010.1
20260904094051 62 0 0.0 0.0 0.00 0.06 0.00 96 1010.0
20260904093552 62 0 0.0 0.0 0.00 0.06 0.00 96 1010.1
20260904093106 62 0 0.0 0.0 0.00 0.06 0.00 96 1010.1
20260904092551 62 0 0.0 0.0 0.00 0.06 0.00 96 1010.0
20260904092051 62 0 0.0 0.0 0.00 0.06 0.00 96 1009.9
20260904091609 62 0 0.0 0.0 0.00 0.06 0.00 96 1010.0
20260904091050 62 0 0.0 0.0 0.00 0.06 0.00 96 1010.0
20260904090551 62 0 0.0 0.0 0.00 0.06 0.00 96 1009.9
20260904090104 62 0 0.0 0.0 0.00 0.06 0.00 96 1010.1
20260904085551 62 0 0.0 0.0 0.00 0.08 0.00 96 1010.1